Wharton, TX

12:31 AM CST on December 11, 2019 (GMT -0600)
Wharton Regional

Weather History for KARM - November, 2019

Change the Weather History Date:

Friday, November 22, 2019

  Actual Average (KPSX) Record (KPSX)
Temperature  
Mean Temperature 64 °F -  
Max Temperature 76 °F 71 °F 83 °F (1973)
Min Temperature 53 °F 52 °F 32 °F (1945)
Growing Degree Days 14 (Base 50)    
Moisture  
Dew Point 60 °F    
Average Humidity 82    
Maximum Humidity 97    
Minimum Humidity 67    
Precipitation  
Precipitation 0.00 in - - ()
Sea Level Pressure  
Sea Level Pressure 29.99 in    
Wind  
Wind Speed 7 mph ()    
Max Wind Speed 20 mph    
Max Gust Speed 24 mph    
Visibility 8.4 miles    
Events      
Averages and records for this station are not official NWS values.
T = Trace of Precipitation, MM = Missing Value Source: Averaged Metar Reports

Daily Weather History Graph

Daily Weather History Graph

Search for Another Location

Airport or City:

Astronomy

Nov. 22, 2019 Rise Set
Actual Time 6:53 AM CST 5:27 PM CST
Civil Twilight 6:28 AM CST 5:52 PM CST
Nautical Twilight 5:59 AM CST 6:21 PM CST
Astronomical Twilight 5:31 AM CST 6:50 PM CST
Moon 2:29 AM CST (11/22) 3:03 PM CST (11/22)
Length of Visible Light 11h 24m
Length of Day
10h 33m
Waning Crescent, 19% of the Moon is Illuminated
Nov 22
Waning Crescent
Nov 26
New
Dec 4
First Quarter
Dec 11
Full
Dec 18
Last Quarter

Hourly Weather History & Observations

Time (CST) Temp. Dew Point Humidity Pressure Visibility Wind Dir Wind Speed Gust Speed Precip Events Conditions
12:55 AM 71.8 °F 69.1 °F 91% 29.96 in 7.0 mi SSE 8.1 mph - N/A   Overcast
1:15 AM 72.0 °F 69.3 °F 91% 29.94 in 10.0 mi SSE 6.9 mph - N/A   Overcast
1:35 AM 71.8 °F 69.3 °F 92% 29.95 in 7.0 mi SSE 5.8 mph - N/A   Overcast
1:55 AM 71.6 °F 69.1 °F 92% 29.95 in 7.0 mi SSE 5.8 mph - N/A   Overcast
2:55 AM 71.1 °F 68.9 °F 93% 29.94 in 7.0 mi ESE 3.5 mph - N/A   Overcast
3:15 AM 70.7 °F 68.9 °F 94% 29.93 in 7.0 mi SE 4.6 mph - N/A   Overcast
3:35 AM 70.5 °F 68.7 °F 94% 29.93 in 7.0 mi SE 3.5 mph - N/A   Overcast
3:55 AM 70.5 °F 69.1 °F 95% 29.93 in 7.0 mi SSE 5.8 mph - N/A   Overcast
4:15 AM 70.7 °F 69.1 °F 95% 29.93 in 7.0 mi SSE 4.6 mph - N/A   Overcast
4:35 AM 70.7 °F 69.1 °F 95% 29.93 in 5.0 mi SSE 4.6 mph - N/A   Overcast
4:55 AM 70.9 °F 69.4 °F 95% 29.93 in 5.0 mi SE 3.5 mph - N/A   Overcast
5:15 AM 71.1 °F 69.8 °F 96% 29.93 in 5.0 mi Calm Calm - N/A   Overcast
5:35 AM 71.1 °F 69.8 °F 96% 29.94 in 5.0 mi Calm Calm - N/A   Overcast
5:55 AM 70.7 °F 69.4 °F 96% 29.94 in 5.0 mi ESE 3.5 mph - N/A   Overcast
6:15 AM 70.7 °F 69.6 °F 96% 29.95 in 5.0 mi SE 3.5 mph - N/A   Overcast
6:35 AM 70.2 °F 69.1 °F 96% 29.96 in 4.0 mi Calm Calm - N/A   Overcast
6:55 AM 70.2 °F 69.1 °F 96% 29.96 in 4.0 mi Calm Calm - N/A   Overcast
7:15 AM 70.3 °F 69.4 °F 97% 29.97 in 4.0 mi Calm Calm - N/A   Overcast
7:35 AM 70.5 °F 69.6 °F 97% 29.98 in 3.0 mi Calm Calm - N/A   Overcast
8:15 AM 71.1 °F 70.2 °F 97% 29.99 in 3.0 mi Calm Calm - N/A   Overcast
8:35 AM 71.6 °F 70.7 °F 97% 30.00 in 5.0 mi Calm Calm - N/A   Overcast
8:55 AM 71.8 °F 70.9 °F 97% 30.01 in 5.0 mi Calm Calm - N/A   Overcast
9:15 AM 72.7 °F 71.6 °F 96% 30.01 in 7.0 mi SW 4.6 mph - N/A   Overcast
9:35 AM 73.6 °F 71.1 °F 92% 30.01 in 7.0 mi SW 5.8 mph - N/A   Overcast
9:55 AM 74.1 °F 70.7 °F 89% 30.01 in 10.0 mi WSW 6.9 mph - N/A   Mostly Cloudy
10:15 AM 74.3 °F 69.6 °F 85% 30.01 in 10.0 mi WSW 8.1 mph - N/A   Overcast
10:35 AM 74.7 °F 68.2 °F 80% 30.01 in 10.0 mi WSW 9.2 mph - N/A   Overcast
10:55 AM 75.7 °F 68.0 °F 77% 30.01 in 10.0 mi WSW 11.5 mph - N/A   Overcast
11:15 AM 76.3 °F 67.3 °F 74% 30.00 in 10.0 mi WSW 9.2 mph 16.1 mph N/A   Overcast
11:35 AM 76.1 °F 66.9 °F 73% 30.00 in 10.0 mi WSW 8.1 mph - N/A   Overcast
11:55 AM 75.4 °F 66.4 °F 73% 29.99 in 10.0 mi West 10.4 mph - N/A   Overcast
12:15 PM 65.8 °F 58.3 °F 77% 29.99 in 10.0 mi NNW 16.1 mph 24.2 mph N/A   Overcast
12:35 PM 64.6 °F 56.3 °F 74% 29.98 in 10.0 mi NNW 17.3 mph - N/A   Overcast
1:00 PM 66.2 °F 55.9 °F 69% 29.98 in 10.0 mi NNW 17.3 mph - N/A   Mostly Cloudy
1:15 PM 66.9 °F 56.1 °F 68% 29.97 in 10.0 mi NNW 15.0 mph - N/A   Mostly Cloudy
1:55 PM 63.7 °F 54.7 °F 72% 29.96 in 10.0 mi NNW 16.1 mph 19.6 mph N/A   Overcast
2:15 PM 64.4 °F 54.7 °F 71% 29.96 in 10.0 mi NNW 16.1 mph - N/A   Overcast
2:35 PM 64.8 °F 54.5 °F 69% 29.95 in 10.0 mi North 17.3 mph 23.0 mph N/A   Mostly Cloudy
3:00 PM 64.6 °F 54.3 °F 69% 29.95 in 10.0 mi NNW 19.6 mph 23.0 mph N/A   Scattered Clouds
3:15 PM 65.5 °F 54.1 °F 67% 29.96 in 10.0 mi North 19.6 mph 23.0 mph N/A   Scattered Clouds
3:35 PM 62.6 °F 52.7 °F 70% 29.96 in 10.0 mi NNW 19.6 mph 23.0 mph N/A   Overcast
3:55 PM 61.7 °F 51.8 °F 70% 29.97 in 10.0 mi North 13.8 mph 20.7 mph N/A   Overcast
4:15 PM 61.0 °F 51.8 °F 72% 29.98 in 10.0 mi North 15.0 mph - N/A   Overcast
4:35 PM 59.2 °F 50.9 °F 74% 29.98 in 10.0 mi North 13.8 mph - N/A   Overcast
4:55 PM 58.6 °F 50.9 °F 75% 29.98 in 10.0 mi NNW 15.0 mph - N/A   Overcast
5:15 PM 58.1 °F 50.4 °F 75% 29.99 in 10.0 mi North 11.5 mph 23.0 mph N/A   Overcast
5:35 PM 57.2 °F 49.3 °F 75% 30.00 in 10.0 mi North 11.5 mph 20.7 mph N/A   Overcast
5:55 PM 57.2 °F 49.1 °F 74% 30.00 in 10.0 mi North 11.5 mph 19.6 mph N/A   Overcast
6:15 PM 56.3 °F 48.2 °F 74% 30.01 in 10.0 mi North 12.7 mph - N/A   Overcast
6:35 PM 55.6 °F 47.8 °F 75% 30.01 in 10.0 mi NNW 16.1 mph 19.6 mph N/A   Overcast
6:55 PM 55.4 °F 47.3 °F 74% 30.02 in 10.0 mi North 15.0 mph 23.0 mph N/A   Overcast
7:15 PM 55.2 °F 47.3 °F 75% 30.03 in 10.0 mi North 13.8 mph - N/A   Overcast
7:55 PM 54.7 °F 47.3 °F 76% 30.03 in 10.0 mi North 13.8 mph 19.6 mph N/A   Overcast
8:15 PM 54.5 °F 47.3 °F 77% 30.03 in 10.0 mi North 11.5 mph - N/A   Overcast
8:35 PM 54.5 °F 47.3 °F 77% 30.04 in 10.0 mi North 12.7 mph - N/A   Overcast
9:15 PM 54.5 °F 47.1 °F 76% 30.05 in 10.0 mi North 10.4 mph - N/A   Overcast
9:35 PM 54.5 °F 46.4 °F 74% 30.05 in 10.0 mi North 12.7 mph - N/A   Overcast
9:55 PM 54.0 °F 46.0 °F 75% 30.06 in 10.0 mi North 10.4 mph - N/A   Overcast
10:35 PM 53.8 °F 46.0 °F 75% 30.06 in 10.0 mi North 11.5 mph - N/A   Overcast
10:55 PM 53.8 °F 45.9 °F 75% 30.06 in 10.0 mi North 10.4 mph 16.1 mph N/A   Overcast
11:15 PM 54.0 °F 45.5 °F 73% 30.06 in 10.0 mi North 11.5 mph - N/A   Overcast
11:35 PM 53.8 °F 45.3 °F 73% 30.06 in 10.0 mi North 13.8 mph - N/A   Overcast
11:55 PM 53.8 °F 45.5 °F 74% 30.07 in 10.0 mi North 10.4 mph - N/A   Overcast